TimeMDT,TemperatureF,Dew PointF,Humidity,Sea Level PressureIn,VisibilityMPH,Wind Direction,Wind SpeedMPH,Gust SpeedMPH,PrecipitationIn,Events,Conditions,WindDirDegrees,DateUTC
12:53 AM,16.0,10.9,81,30.17,10.0,NNW,3.5,-,N/A,,Mostly Cloudy,340,2013-03-26 06:53:00
1:53 AM,15.1,10.0,80,30.15,10.0,Calm,Calm,-,N/A,,Partly Cloudy,0,2013-03-26 07:53:00
2:53 AM,14.0,9.0,80,30.14,10.0,ESE,3.5,-,N/A,,Partly Cloudy,120,2013-03-26 08:53:00
3:53 AM,12.9,9.0,84,30.12,10.0,Calm,Calm,-,N/A,,Scattered Clouds,0,2013-03-26 09:53:00
4:53 AM,12.9,9.0,84,30.09,10.0,Calm,Calm,-,N/A,,Partly Cloudy,0,2013-03-26 10:53:00
5:53 AM,15.1,9.0,77,30.08,10.0,Calm,Calm,-,N/A,,Partly Cloudy,0,2013-03-26 11:53:00
6:53 AM,12.0,9.0,88,30.09,10.0,Calm,Calm,-,N/A,,Scattered Clouds,0,2013-03-26 12:53:00
7:53 AM,15.1,10.0,80,30.09,10.0,ENE,4.6,-,N/A,,Mostly Cloudy,60,2013-03-26 13:53:00
8:53 AM,19.9,12.9,74,30.11,10.0,Calm,Calm,-,N/A,,Scattered Clouds,0,2013-03-26 14:53:00
9:33 AM,21.2,15.8,80,30.01,8.0,Calm,Calm,-,N/A,,Overcast,0,2013-03-26 15:33:00
9:53 AM,21.9,16.0,78,30.10,10.0,Calm,Calm,-,0.00,,Mostly Cloudy,0,2013-03-26 15:53:00
10:02 AM,23.0,15.8,74,30.00,10.0,Calm,Calm,-,N/A,,Mostly Cloudy,0,2013-03-26 16:02:00
10:53 AM,28.9,12.0,49,30.07,10.0,Calm,Calm,-,N/A,,Overcast,0,2013-03-26 16:53:00
11:53 AM,32.0,14.0,48,30.05,10.0,East,3.5,-,N/A,,Overcast,90,2013-03-26 17:53:00
12:53 PM,32.0,16.0,52,30.04,10.0,Calm,Calm,-,N/A,,Clear,0,2013-03-26 18:53:00
1:53 PM,35.1,18.0,50,30.03,10.0,Calm,Calm,-,N/A,,Clear,0,2013-03-26 19:53:00
2:53 PM,37.0,19.0,48,30.00,10.0,Variable,4.6,-,N/A,,Mostly Cloudy,0,2013-03-26 20:53:00
3:53 PM,37.9,19.9,48,29.99,10.0,Calm,Calm,-,N/A,,Overcast,0,2013-03-26 21:53:00
4:53 PM,39.9,21.9,49,29.98,10.0,WSW,4.6,-,N/A,,Mostly Cloudy,240,2013-03-26 22:53:00
5:53 PM,41.0,23.0,49,29.97,10.0,East,5.8,-,N/A,,Mostly Cloudy,80,2013-03-26 23:53:00
6:53 PM,36.0,28.0,73,30.02,10.0,NE,11.5,-,N/A,,Overcast,40,2013-03-27 00:53:00
7:53 PM,32.0,27.0,82,30.03,10.0,ENE,6.9,-,N/A,,Clear,60,2013-03-27 01:53:00
8:53 PM,30.0,27.0,88,30.04,10.0,North,3.5,-,N/A,,Overcast,360,2013-03-27 02:53:00
9:53 PM,28.0,26.1,92,30.05,10.0,North,4.6,-,N/A,,Clear,360,2013-03-27 03:53:00
10:53 PM,27.0,25.0,92,30.02,10.0,Calm,Calm,-,N/A,,Partly Cloudy,0,2013-03-27 04:53:00
11:53 PM,25.0,24.1,96,30.02,10.0,Calm,Calm,-,N/A,,Clear,0,2013-03-27 05:53:00